Home > Time Zones > World Clock > Weather > U.S.A. > Nome > Past weeks

Flag for U.S.A. Weather past 2 weeks in Nome, Alaska, U.S.A.

Now
20 °F

Passing clouds.


Feels Like: 5 °F
Forecast: 24 / 28 °F
Wind: 17 mph from East

Location: Nome Airport

Current Time: Apr 20, 2015 at 6:09:24 PM

Latest Report: Apr 20, 2015 at 4:53 PM


Visibility: 10 mi

Pressure: 29.57 "Hg

Humidity: 85%

Dew point: 16 °F

Location of NomeLocation

Historic Weather in Nome — Graph

°F

Nome temperature yesterday

Maximum temperature yesterday: 39 °F (at 1:53 AM)
Minimum temperature yesterday: 32 °F (at 5:53 PM)
Average temperature yesterday: 35 °F

Past Weeks' High & Low Weather Summary

 TemperatureHumidityPressure
High39 °F (Apr 19, 1:53 AM)100% (Apr 5, 6:53 PM)29.92 "Hg (Apr 5, 6:53 PM)
Low-6 °F (Apr 15, 7:53 AM)57% (Apr 17, 1:53 PM)29.06 "Hg (Apr 7, 7:53 PM)
Average18 °F84%29.47 "Hg
* Reported Apr 5 4:49 PM — Apr 20 4:53 PM, Nome, Weather by CustomWeather, © 2015

Note: Actual official high and low records may vary slightly from our data, if they occured in-between our weather recording intervals... More about our weather records

Advertising

Nome weather history for previous 24 hours

 ConditionsComfort  
Time TempWeatherWind HumidityBarometerVisibility
4:53 PM
Mon, Apr 20
20 °FPassing clouds.17 mph85%29.57 "Hg10 mi
3:53 PM20 °FScattered clouds.13 mph78%29.59 "Hg10 mi
2:53 PM20 °FPartly sunny.14 mph85%29.57 "Hg10 mi
2:00 PM20 °FPartly sunny.13 mph85%29.58 "Hg10 mi
12:53 PM19 °FScattered clouds.10 mph85%29.54 "Hg10 mi
11:53 AM18 °FBroken clouds.12 mph88%29.53 "Hg10 mi
10:53 AM18 °FCloudy.14 mph92%29.52 "Hg10 mi
10:04 AM19 °FLight snow. Ice fog.13 mph92%29.50 "Hg2 mi
9:53 AM19 °FLight snow. Ice fog.13 mph96%29.49 "Hg2 mi
9:03 AM19 °FLight snow. Ice fog.17 mph96%29.46 "Hg1 mi
8:53 AM19 °FLight snow. Ice fog.18 mph96%29.46 "Hg1 mi
7:53 AM20 °FLight snow. Ice fog.17 mph100%29.44 "Hg1 mi
6:53 AM22 °FLight snow. Overcast.18 mph96%29.39 "Hg7 mi
5:53 AM23 °FLight snow. Ice fog.20 mph100%29.34 "Hg2 mi
4:53 AM25 °FLight snow. Ice fog.24 mph100%29.29 "Hg1 mi
4:02 AM32 °FLight snow. Ice fog.8 mph100%29.26 "Hg1 mi
3:53 AM32 °FLight snow. Ice fog.9 mph100%29.26 "Hg1 mi
2:53 AM34 °FOvercast.10 mph97%29.26 "Hg10 mi
1:53 AM34 °FOvercast.3 mph92%29.25 "Hg10 mi
12:53 AM34 °FMostly cloudy.7 mph92%29.25 "Hg10 mi
11:53 PM
Sun, Apr 19
34 °FPartly cloudy.6 mph92%29.24 "Hg10 mi
10:53 PM32 °FBroken clouds.No wind100%29.23 "Hg10 mi
9:53 PM34 °FBroken clouds.5 mph92%29.22 "Hg10 mi
9:00 PM36 °FOvercast.5 mph89%29.22 "Hg10 mi
7:53 PM36 °FBroken clouds.6 mph89%29.20 "Hg10 mi
6:53 PM36 °FOvercast.5 mph89%29.19 "Hg10 mi
Weather by CustomWeather, © 2015

See weather overviewHow to use our weather pages